Weather History for Danville, VA

Change the Weather History Date:

Sunday, November 6, 2011

  Actual Average Record
Temperature  
Mean Temperature 49 °F 53 °F  
Max Temperature 62 °F 64 °F 81 °F (1975)
Min Temperature 35 °F 42 °F 21 °F (1991)
Degree Days  
Heating Degree Days 16 12  
Month to date heating degree days 110 70  
Since 1 July heating degree days 407 303  
Cooling Degree Days 0 0  
Month to date cooling degree days 0 0  
Year to date cooling degree days 1563 1436  
Moisture  
Dew Point 38 °F    
Average Humidity 75    
Maximum Humidity 100    
Minimum Humidity 49    
Precipitation  
Precipitation 0.00 in 0.12 in 0.97 in (1963)
Month to date precipitation 1.34 0.73  
Year to date precipitation 33.18 38.51  
Snow  
Snow 0.00 in - - ()
Month to date snowfall 0.0  
Since 1 July snowfall 0.0  
Since 1 September snowfall 0.0  
Snow Depth 0.00 in    
Sea Level Pressure  
Sea Level Pressure 30.44 in    
Wind  
Wind Speed 2 mph (NE)    
Max Wind Speed 8 mph    
Max Gust Speed 12 mph    
Visibility 10 miles    
Events      
T = Trace of Precipitation, MM = Missing Value Source: NWS Daily Summary

Daily Weather History Graph

Daily Weather History Graph

Search for Another Location

Airport:

Trip Planner

Search our weather history database for the weather conditions in past years. The results will help you decide how hot, cold, wet, or windy it might be!

Date:

Astronomy

Nov. 06, 2011 Rise Set
Actual Time 6:45 AM EST 5:15 PM EST
Civil Twilight 6:18 AM EST 5:42 PM EST
Nautical Twilight 5:47 AM EST 6:13 PM EST
Astronomical Twilight 5:17 AM EST 6:43 PM EST
Moon 2:54 PM EST (11/6) 2:55 AM EST (11/6)
Length of Visible Light 11h 24m
Length of Day
10h 30m
Waxing Gibbous, 85% of the Moon is Illuminated
Nov 6
Waxing Gibbous
Nov 10
Full
Nov 18
Last Quarter
Nov 25
New
Dec 2
First Quarter

Hourly Weather History & Observations

Time (EST) Temp. Windchill Dew Point Humidity Pressure Visibility Wind Dir Wind Speed Gust Speed Precip Events Conditions
12:53 AM 37.0 °F - 32.0 °F 82% 30.46 in 10.0 mi Calm Calm - N/A   Overcast
1:53 AM 39.0 °F - 35.1 °F 86% 30.46 in 10.0 mi Calm Calm - N/A   Overcast
1:53 AM 41.0 °F - 34.0 °F 76% 30.45 in 10.0 mi Calm Calm - N/A   Overcast
2:53 AM 37.0 °F - 32.0 °F 82% 30.44 in 10.0 mi Calm Calm - N/A   Clear
3:53 AM 37.9 °F 35.5 °F 33.1 °F 83% 30.44 in 10.0 mi North 3.5 mph - N/A   Mostly Cloudy
4:53 AM 39.0 °F 36.8 °F 34.0 °F 82% 30.46 in 10.0 mi North 3.5 mph - N/A   Overcast
5:53 AM 39.9 °F 37.8 °F 35.1 °F 83% 30.46 in 10.0 mi East 3.5 mph - N/A   Overcast
6:53 AM 39.9 °F - 36.0 °F 86% 30.48 in 10.0 mi Calm Calm - N/A   Overcast
7:53 AM 42.1 °F 39.2 °F 35.1 °F 76% 30.50 in 10.0 mi North 4.6 mph - N/A   Overcast
8:53 AM 46.0 °F 43.1 °F 35.1 °F 66% 30.51 in 10.0 mi NNE 5.8 mph - N/A   Partly Cloudy
9:53 AM 50.0 °F - 36.0 °F 59% 30.51 in 10.0 mi NE 5.8 mph - N/A   Clear
10:53 AM 53.1 °F - 37.0 °F 55% 30.49 in 10.0 mi ENE 6.9 mph - N/A   Clear
11:53 AM 55.9 °F - 39.0 °F 53% 30.47 in 10.0 mi NE 8.1 mph - N/A   Clear
12:53 PM 57.0 °F - 39.9 °F 53% 30.43 in 10.0 mi South 3.5 mph - N/A   Clear
1:53 PM 60.1 °F - 41.0 °F 49% 30.41 in 10.0 mi ENE 3.5 mph - N/A   Clear
2:53 PM 60.1 °F - 41.0 °F 49% 30.39 in 10.0 mi ESE 4.6 mph - N/A   Clear
3:53 PM 61.0 °F - 41.0 °F 48% 30.39 in 10.0 mi Calm Calm - N/A   Clear
4:53 PM 57.9 °F - 44.1 °F 60% 30.38 in 10.0 mi Calm Calm - N/A   Clear
5:53 PM 48.0 °F - 43.0 °F 83% 30.39 in 10.0 mi Calm Calm - N/A   Clear
6:53 PM 46.0 °F - 42.1 °F 86% 30.40 in 10.0 mi Calm Calm - N/A   Clear
7:53 PM 44.1 °F - 42.1 °F 93% 30.40 in 10.0 mi Calm Calm - N/A   Clear
8:53 PM 41.0 °F - 39.0 °F 93% 30.40 in 8.0 mi Calm Calm - N/A   Clear
9:53 PM 39.2 °F - 39.2 °F 100% 30.42 in 9.0 mi Calm Calm - N/A   Clear
10:53 PM 37.9 °F - 37.0 °F 97% 30.40 in 8.0 mi Calm Calm - N/A   Clear